Location: Napier
(39.4830°S, 176.9170°E)
Time: 13:08:37
(UTC+13:00)

ERBS - Pass Details

Date: 24 January 2019
Orbit: 418 x 432 km, 57.0° (Epoch: 17 February)

Event Time Altitude Azimuth Distance (km) Brightness Sun altitude
Rises 22:31:04 0° 216° (SW) 2,443 7.8 -18.7°
Reaches altitude 10° 22:33:21 10° 206° (SSW) 1,568 6.3 -19.0°
Maximum altitude 22:36:33 32° 140° (SE) 780 3.6 -19.4°
Enters shadow 22:37:04 31° 121° (ESE) 810 3.5 -19.5°
